Overview Statistics Trail Chart Weather Telemetry Raw packets
 

This is the latest recevied weather packets stored in our database for station/object ED4YAF-13. If no packets are shown the sender has not sent any weather packets the latest 10 day(s).

<< 12 13 14 15 16 17 18 >>
Time Temp. Humidity Pressure Rain* Wind** Luminosity Snow
1788293522 17.22° C 66% 1019.2 hPa - - - -
1788292622 17.78° C 65% 1018.8 hPa - - - -
1788291711 17.78° C 63% 1018.4 hPa - - - -
1788290807 18.33° C 61% 1018 hPa - - - -
1788289914 18.33° C 59% 1017.6 hPa - - - -
1788289007 18.89° C 56% 1017 hPa - - - -
1788286520 20.56° C 49% 1015.5 hPa - - - -
1788284713 22.78° C 45% 1014.2 hPa - - - -
1788282889 23.33° C 42% 1013.6 hPa - - - -
1788281982 23.89° C 40% 1013 hPa - - - -
1788281085 23.89° C 40% 1012.9 hPa - - - -
1788280166 24.44° C 38% 1012.7 hPa - - - -
1788279264 24.44° C 40% 1012.9 hPa - - - -
1788278357 24.44° C 41% 1012.7 hPa - - - -
1788277457 24.44° C 40% 1012.6 hPa - - - -
1788275639 25° C 39% 1012.3 hPa - - - -
1788274732 25° C 38% 1012.5 hPa - - - -
1788272030 26.11° C 37% 1011.9 hPa - - - -
1788271124 26.11° C 36% 1012 hPa - - - -
1788270232 25.56° C 38% 1012.4 hPa - - - -
1788269324 25° C 39% 1012.6 hPa - - - -
1788268432 25.56° C 39% 1012.4 hPa - - - -
1788267516 25° C 39% 1012.8 hPa - - - -
1788266606 25° C 39% 1013 hPa - - - -
1788265706 25° C 39% 1013 hPa - - - -

* Rain since midnight (hover to see other rain measurements)
** Current wind speed in m/s (hover to see current wind gust speed)